D1376 Weather Reports


time (UTC)temp
C
wind
direction
speed
KPH
gust
KPH
rain 1hr
cm
rain 24hr
cm
rain mn
cm
humidity
%
barometer
mb
20260906123948 22 245 0.0 6.4 0.00 0.00 0.00 94 1014.4
20260906122948 21 245 0.0 1.6 0.00 0.00 0.00 94 1014.3
20260906121947 21 245 0.0 1.6 0.00 0.00 0.00 94 1014.0
20260906120948 21 245 0.0 4.8 0.00 0.00 0.00 94 1013.9
20260906115947 21 245 0.0 4.8 0.00 0.00 0.00 94 1013.7
20260906114948 21 245 0.0 6.4 0.00 0.00 0.00 94 1013.7
20260906113947 21 246 1.6 6.4 0.00 0.00 0.00 93 1013.3
20260906112947 21 246 0.0 9.7 0.00 0.00 0.00 93 1013.4
20260906111947 21 246 0.0 4.8 0.00 0.00 0.00 92 1013.2
20260906105947 21 246 3.2 8.0 0.00 0.00 0.00 92 1012.8
20260906104947 22 246 0.0 8.0 0.00 0.00 0.00 91 1012.8
20260906103947 22 245 1.6 9.7 0.00 0.00 0.00 91 1012.7
20260906102947 22 244 0.0 8.0 0.00 0.00 0.00 91 1012.6
20260906101947 22 244 0.0 3.2 0.00 0.00 0.00 91 1012.6
20260906100946 22 244 1.6 4.8 0.00 0.00 0.00 90 1012.4
20260906095946 22 244 0.0 0.0 0.00 0.00 0.00 90 1012.4
20260906093946 23 244 0.0 3.2 0.00 0.00 0.00 89 1012.3
20260906092946 23 244 0.0 3.2 0.00 0.00 0.00 89 1012.2
20260906091946 23 244 0.0 4.8 0.00 0.00 0.00 88 1012.2
20260906090946 23 244 0.0 4.8 0.00 0.00 0.00 88 1012.0
20260906090016 23 244 4.8 8.0 0.00 0.00 0.00 87 1012.0
20260906084947 23 244 0.0 4.8 0.00 0.00 0.00 87 1012.0
20260906083946 24 244 0.0 8.0 0.00 0.00 0.00 86 1012.1
20260906082945 24 243 0.0 0.0 0.00 0.00 0.00 85 1012.1
20260906081946 24 243 0.0 0.0 0.00 0.00 0.00 85 1012.2
20260906080945 25 243 0.0 0.0 0.00 0.00 0.00 84 1012.2
20260906080015 25 243 0.0 0.0 0.00 0.00 0.00 84 1012.0
20260906073945 25 243 0.0 0.0 0.00 0.00 0.00 82 1012.0
20260906072945 25 243 0.0 0.0 0.00 0.00 0.00 82 1012.1
20260906071945 25 243 0.0 0.0 0.00 0.00 0.00 82 1012.0
20260906070944 26 243 0.0 0.0 0.00 0.00 0.00 82 1012.1
20260906070015 26 243 0.0 0.0 0.00 0.00 0.00 81 1012.0
20260906064945 26 243 0.0 0.0 0.00 0.00 0.00 81 1012.0
20260906063944 26 243 0.0 1.6 0.00 0.00 0.00 80 1012.2
20260906062944 26 243 0.0 6.4 0.00 0.00 0.00 80 1012.3
20260906061944 26 243 0.0 0.0 0.00 0.00 0.00 79 1012.5
20260906061015 27 243 0.0 3.2 0.00 0.00 0.00 80 1012.5
20260906060015 27 243 0.0 4.8 0.00 0.00 0.00 80 1012.5
20260906055014 27 243 0.0 0.0 0.00 0.00 0.00 81 1012.4
20260906053944 27 243 0.0 3.2 0.00 0.00 0.00 80 1012.5
20260906053014 27 243 0.0 0.0 0.00 0.00 0.00 79 1012.5
20260906052013 27 243 0.0 4.8 0.00 0.00 0.00 79 1012.5
20260906051015 28 244 0.0 6.4 0.00 0.00 0.00 79 1012.4
20260906050013 28 244 0.0 8.0 0.00 0.00 0.00 79 1012.2
20260906045013 28 248 0.0 9.7 0.00 0.00 0.00 78 1012.0
20260906044013 28 250 0.0 8.0 0.00 0.00 0.00 78 1011.9
20260906042013 28 252 0.0 4.8 0.00 0.00 0.00 77 1012.0
20260906041013 28 252 0.0 3.2 0.00 0.00 0.00 77 1011.9
20260906040014 29 252 0.0 0.0 0.00 0.00 0.00 76 1011.9
20260906035013 29 252 0.0 0.0 0.00 0.00 0.00 75 1011.6
20260906034013 29 252 0.0 0.0 0.00 0.00 0.00 74 1011.5
20260906033012 30 252 0.0 0.0 0.00 0.00 0.00 73 1011.4
20260906032012 30 252 0.0 0.0 0.00 0.00 0.00 72 1011.3
20260906031012 30 252 0.0 0.0 0.00 0.00 0.00 72 1011.3
20260906030012 30 252 0.0 0.0 0.00 0.00 0.00 71 1011.2
20260906025012 30 252 0.0 0.0 0.00 0.00 0.00 70 1011.1
20260906024012 30 252 0.0 0.0 0.00 0.00 0.00 69 1011.2
20260906023012 30 252 0.0 0.0 0.00 0.00 0.00 69 1011.1
20260906022012 30 252 0.0 0.0 0.00 0.00 0.00 68 1010.9
20260906021012 30 252 0.0 0.0 0.00 0.00 0.00 68 1010.8
20260906020011 30 252 0.0 0.0 0.00 0.00 0.00 67 1010.5
20260906015011 31 252 0.0 0.0 0.00 0.00 0.00 65 1010.4
20260906014012 31 252 0.0 0.0 0.00 0.00 0.00 64 1010.4
20260906013011 31 252 0.0 0.0 0.00 0.00 0.00 63 1010.3
20260906011011 32 252 0.0 0.0 0.00 0.00 0.00 61 1010.1
20260906010011 32 252 0.0 0.0 0.00 0.00 0.00 61 1009.8
20260906003012 32 252 0.0 0.0 0.00 0.00 0.00 58 1009.7
20260906002011 33 252 0.0 0.0 0.00 0.00 0.00 57 1009.8
20260906000010 33 252 0.0 0.0 0.00 0.00 0.00 55 1009.8
20260905235010 34 252 0.0 0.0 0.00 0.00 0.00 54 1009.9
20260905234011 34 252 0.0 0.0 0.00 0.00 0.00 53 1009.6
20260905233010 35 252 0.0 0.0 0.00 0.00 0.00 52 1009.6
20260905232010 35 252 0.0 4.8 0.00 0.00 0.00 51 1009.5
20260905231010 35 252 0.0 3.2 0.00 0.00 0.00 51 1009.5
20260905225009 35 252 0.0 6.4 0.00 0.00 0.00 49 1009.4
20260905223009 36 252 0.0 8.0 0.00 0.00 0.00 47 1009.5
20260905222010 36 252 8.0 8.0 0.00 0.00 0.00 46 1009.5
20260905220009 37 251 3.2 8.0 0.00 0.00 0.00 47 1009.4
20260905215009 37 251 1.6 8.0 0.00 0.00 0.00 43 1009.2
20260905214009 38 249 1.6 8.0 0.00 0.00 0.00 41 1009.3
20260905213009 38 249 3.2 8.0 0.00 0.00 0.00 41 1009.2
20260905212009 38 249 0.0 4.8 0.00 0.00 0.00 41 1009.4
20260905211008 37 249 1.6 9.7 0.00 0.00 0.00 41 1009.4
20260905210009 37 248 1.6 11.3 0.00 0.00 0.00 42 1009.6
20260905203008 38 242 1.6 6.4 0.00 0.00 0.00 41 1010.0
20260905202009 38 242 1.6 11.3 0.00 0.00 0.00 40 1010.0
20260905201008 38 241 4.8 9.7 0.00 0.00 0.00 39 1010.3
20260905195007 38 237 1.6 6.4 0.00 0.00 0.00 40 1010.3
20260905194008 38 237 6.4 14.5 0.00 0.00 0.00 40 1010.4
20260905193009 38 238 4.8 8.0 0.00 0.00 0.00 40 1010.5
20260905192008 38 237 4.8 11.3 0.00 0.00 0.00 41 1010.7
20260905190008 38 236 0.0 9.7 0.00 0.00 0.00 41 1011.0
20260905185007 38 236 1.6 6.4 0.00 0.00 0.00 43 1011.0
20260905184007 38 236 3.2 4.8 0.00 0.00 0.00 43 1011.3
20260905182007 37 236 1.6 8.0 0.00 0.00 0.00 46 1011.4
20260905181006 37 236 1.6 6.4 0.00 0.00 0.00 48 1011.6
20260905180007 36 236 0.0 0.0 0.00 0.00 0.00 49 1011.6
20260905174006 36 236 0.0 0.0 0.00 0.00 0.00 49 1011.8
20260905173006 36 236 0.0 1.6 0.00 0.00 0.00 48 1011.8
20260905172006 36 236 0.0 3.2 0.00 0.00 0.00 51 1011.9
20260905170006 36 236 0.0 0.0 0.00 0.00 0.00 50 1012.0
20260905165007 35 236 0.0 4.8 0.00 0.00 0.00 52 1012.1
20260905164006 36 236 3.2 3.2 0.00 0.00 0.00 54 1012.4
20260905163005 35 236 0.0 6.4 0.00 0.00 0.00 54 1012.3
20260905161005 34 236 0.0 3.2 0.00 0.00 0.00 57 1012.4
20260905160006 34 236 3.2 6.4 0.00 0.00 0.00 54 1012.5
20260905154005 33 236 0.0 4.8 0.00 0.00 0.00 59 1012.7
20260905153005 33 236 0.0 4.8 0.00 0.00 0.00 57 1012.7
20260905152005 33 236 0.0 1.6 0.00 0.00 0.00 57 1012.7
20260905151005 32 236 0.0 3.2 0.00 0.00 0.00 60 1012.7
20260905150006 32 236 0.0 0.0 0.00 0.00 0.00 61 1012.5
20260905145004 32 236 0.0 0.0 0.00 0.00 0.00 60 1012.5
20260905144004 31 236 0.0 6.4 0.00 0.00 0.00 64 1012.6
20260905143005 31 236 0.0 8.0 0.00 0.00 0.00 63 1012.5
20260905142004 31 236 0.0 3.2 0.00 0.00 0.00 66 1012.5
20260905141004 30 236 0.0 3.2 0.00 0.00 0.00 65 1012.6
20260905140005 30 236 0.0 4.8 0.00 0.00 0.00 67 1012.6
20260905135004 30 236 0.0 0.0 0.00 0.00 0.00 70 1012.6
20260905133004 28 236 0.0 0.0 0.00 0.00 0.00 74 1012.7
20260905131003 27 236 0.0 0.0 0.00 0.00 0.00 76 1012.7
20260905125003 26 236 0.0 0.0 0.00 0.00 0.00 82 1012.4